Massena, NY

4:00 AM EDT on September 18, 2019 (GMT -0400)
Massena International-Richards

Weather History for KMSS - July, 2019

Change the Weather History Date:

Friday, July 26, 2019

  Actual Average Record
Temperature  
Mean Temperature 72 °F 69 °F  
Max Temperature 88 °F 80 °F 92 °F (1989)
Min Temperature 57 °F 58 °F 44 °F (2013)
Degree Days  
Heating Degree Days 0 1  
Month to date heating degree days 26  
Since 1 June heating degree days 122  
Since 1 July heating degree days 26  
Cooling Degree Days 7 5  
Month to date cooling degree days 127  
Year to date cooling degree days 216  
Since 1 June cooling degree days 202  
Growing Degree Days 22 (Base 50)    
Moisture  
Dew Point 61 °F    
Average Humidity 70    
Maximum Humidity 96    
Minimum Humidity 40    
Precipitation  
Precipitation 0.00 in 0.12 in 2.51 in (1986)
Month to date precipitation 2.98  
Year to date precipitation 18.43  
Sea Level Pressure  
Sea Level Pressure 30.21 in    
Wind  
Wind Speed 4 mph (SW)    
Max Wind Speed 10 mph    
Max Gust Speed -    
Visibility 10 miles    
Events      
T = Trace of Precipitation, MM = Missing Value Source: NWS Daily Summary

Daily Weather History Graph

Daily Weather History Graph

Search for Another Location

Airport or City:

Astronomy

Jul. 26, 2019 Rise Set
Actual Time 5:38 AM EDT 8:33 PM EDT
Civil Twilight 5:03 AM EDT 9:07 PM EDT
Nautical Twilight 4:19 AM EDT 9:51 PM EDT
Astronomical Twilight 3:27 AM EDT 10:43 PM EDT
Moon 12:55 AM EDT (7/26) 3:12 PM EDT (7/26)
Length of Visible Light 16h 04m
Length of Day
14h 55m
Waning Crescent, 34% of the Moon is Illuminated
Jul 26
Waning Crescent
Jul 31
New
Aug 7
First Quarter
Aug 15
Full
Aug 23
Last Quarter

Hourly Weather History & Observations

Time (EDT) Temp. Heat Index Dew Point Humidity Pressure Visibility Wind Dir Wind Speed Gust Speed Precip Events Conditions
12:53 AM 64.0 °F - 60.1 °F 87% 30.17 in 10.0 mi SSW 4.6 mph - N/A   Clear
1:53 AM 62.1 °F - 59.0 °F 90% 30.17 in 10.0 mi Calm Calm - N/A   Clear
2:53 AM 57.0 °F - 55.9 °F 96% 30.18 in 9.0 mi Calm Calm - N/A   Clear
3:53 AM 59.0 °F - 57.0 °F 93% 30.18 in 10.0 mi Calm Calm - N/A   Clear
4:53 AM 59.0 °F - 55.9 °F 90% 30.20 in 10.0 mi Calm Calm - N/A   Clear
5:53 AM 57.0 °F - 55.0 °F 93% 30.22 in 8.0 mi NNE 3.5 mph - N/A   Clear
6:53 AM 61.0 °F - 57.9 °F 90% 30.22 in 10.0 mi Calm Calm - N/A   Clear
7:53 AM 69.1 °F - 62.1 °F 78% 30.24 in 10.0 mi SSW 5.8 mph - N/A   Clear
8:53 AM 72.0 °F - 63.0 °F 73% 30.24 in 10.0 mi SW 9.2 mph - N/A   Clear
9:53 AM 75.9 °F - 64.0 °F 67% 30.24 in 10.0 mi SSW 10.4 mph - N/A   Clear
10:53 AM 79.0 °F - 64.9 °F 62% 30.24 in 10.0 mi SSW 8.1 mph - N/A   Clear
11:53 AM 81.0 °F 83.0 °F 66.0 °F 60% 30.24 in 10.0 mi WSW 8.1 mph - N/A   Clear
12:53 PM 84.0 °F 85.8 °F 64.9 °F 53% 30.24 in 10.0 mi South 6.9 mph - N/A   Clear
1:53 PM 86.0 °F 87.3 °F 64.0 °F 48% 30.23 in 10.0 mi Variable 5.8 mph - N/A   Clear
2:53 PM 84.9 °F 85.4 °F 62.1 °F 46% 30.22 in 10.0 mi SW 5.8 mph - N/A   Mostly Cloudy
3:53 PM 87.1 °F 86.7 °F 60.1 °F 40% 30.22 in 10.0 mi SW 6.9 mph - N/A   Clear
4:53 PM 87.1 °F 86.7 °F 60.1 °F 40% 30.21 in 10.0 mi SW 8.1 mph - N/A   Partly Cloudy
5:53 PM 86.0 °F 86.3 °F 62.1 °F 44% 30.20 in 10.0 mi SW 9.2 mph - N/A   Clear
6:53 PM 82.9 °F 83.2 °F 60.1 °F 46% 30.20 in 10.0 mi SW 6.9 mph - N/A   Clear
7:53 PM 80.1 °F 80.9 °F 60.1 °F 50% 30.21 in 10.0 mi SW 3.5 mph - N/A   Clear
8:53 PM 69.1 °F - 62.1 °F 78% 30.21 in 10.0 mi Calm Calm - N/A   Clear
9:53 PM 64.9 °F - 61.0 °F 87% 30.22 in 10.0 mi Calm Calm - N/A   Clear
10:53 PM 62.1 °F - 60.1 °F 93% 30.22 in 10.0 mi Calm Calm - N/A   Clear
11:53 PM 62.1 °F - 57.9 °F 86% 30.22 in 10.0 mi Calm Calm - N/A   Clear